When you browse on this site, cookies collect data to enhance your experience and personalize the content and advertising you see.
Visit our Privacy Policy to learn more. By continuing to use the site, you agree to this use of cookies and data.
  • In Hungary
  • List of Countries
  • For 7 days
  • Water Temperature
  • Satellite Maps
  • Weather Map
  • News
  • Weather Widgets
  • user-avatar
    Login

    Hourly Weather Gawlow

    Today, 26 May, Sunday

    Time Temperature Precipitation Wind Pressure Humidity
    00:00 +13°C° 0 mm 1 mps 743 mmHg 88%
    01:00 +13°C° 0 mm 1 mps 743 mmHg 89%
    02:00 +12°C° 0 mm 1 mps 744 mmHg 90%
    03:00 +12°C° 0 mm 1 mps 744 mmHg 90%
    04:00 +12°C° 0 mm 1 mps 744 mmHg 90%
    05:00 +14°C° 0 mm 1 mps 744 mmHg 85%
    06:00 +15°C° 0 mm 1 mps 744 mmHg 81%
    07:00 +18°C° 0 mm 1 mps 744 mmHg 76%
    08:00 +19°C° 0.2 mm 2 mps 744 mmHg 73%
    09:00 +20°C° 0.2 mm 2 mps 744 mmHg 69%
    10:00 +21°C° 0.2 mm 3 mps 744 mmHg 66%
    11:00 +22°C° 0.3 mm 3 mps 743 mmHg 65%
    12:00 +22°C° 0.3 mm 3 mps 743 mmHg 64%
    13:00 +24°C° 0.3 mm 3 mps 743 mmHg 63%
    14:00 +24°C° 0.4 mm 2 mps 743 mmHg 63%
    15:00 +24°C° 0.4 mm 2 mps 743 mmHg 64%
    16:00 +24°C° 0.4 mm 2 mps 743 mmHg 65%
    17:00 +21°C° 0.3 mm 2 mps 743 mmHg 70%
    18:00 +20°C° 0.3 mm 2 mps 742 mmHg 76%
    19:00 +18°C° 0.3 mm 2 mps 742 mmHg 81%
    20:00 +17°C° 0 mm 2 mps 743 mmHg 84%
    21:00 +16°C° 0 mm 2 mps 743 mmHg 86%
    22:00 +15°C° 0 mm 2 mps 743 mmHg 89%
    23:00 +15°C° 0 mm 2 mps 743 mmHg 89%

    Tomorrow, 27 May, Monday

    Time Temperature Precipitation Wind Pressure Humidity
    00:00 +15°C° 0 mm 2 mps 743 mmHg 90%
    01:00 +14°C° 0 mm 2 mps 742 mmHg 91%
    02:00 +14°C° 0 mm 2 mps 742 mmHg 90%
    03:00 +14°C° 0 mm 2 mps 742 mmHg 90%
    04:00 +14°C° 0 mm 2 mps 742 mmHg 89%
    05:00 +15°C° 0 mm 2 mps 742 mmHg 87%
    06:00 +17°C° 0 mm 2 mps 742 mmHg 85%
    07:00 +18°C° 0 mm 2 mps 742 mmHg 82%
    08:00 +20°C° 0 mm 2 mps 742 mmHg 78%
    09:00 +21°C° 0 mm 2 mps 742 mmHg 73%
    10:00 +23°C° 0 mm 2 mps 742 mmHg 69%
    11:00 +24°C° 0 mm 2 mps 742 mmHg 64%
    12:00 +25°C° 0 mm 2 mps 742 mmHg 59%
    13:00 +26°C° 0 mm 2 mps 741 mmHg 54%
    14:00 +26°C° 0.1 mm 2 mps 741 mmHg 59%
    15:00 +25°C° 0.1 mm 2 mps 741 mmHg 64%
    16:00 +25°C° 0.1 mm 2 mps 740 mmHg 68%
    17:00 +24°C° 0.2 mm 2 mps 740 mmHg 72%
    18:00 +22°C° 0.2 mm 1 mps 740 mmHg 76%
    19:00 +19°C° 0.2 mm 0 mps 740 mmHg 79%
    20:00 +20°C° 0.6 mm 1 mps 740 mmHg 83%
    21:00 +20°C° 0.6 mm 1 mps 740 mmHg 87%
    22:00 +19°C° 0.6 mm 1 mps 740 mmHg 91%
    23:00 +19°C° 0.2 mm 1 mps 739 mmHg 92%

    Day after tomorrow, 28 May, Tuesday

    Time Temperature Precipitation Wind Pressure Humidity
    00:00 +17°C° 0.2 mm 2 mps 739 mmHg 93%
    01:00 +17°C° 0.2 mm 2 mps 739 mmHg 95%
    02:00 +17°C° 0.1 mm 2 mps 738 mmHg 94%
    03:00 +16°C° 0.1 mm 2 mps 738 mmHg 94%
    04:00 +16°C° 0.1 mm 2 mps 738 mmHg 94%
    05:00 +17°C° 0 mm 2 mps 738 mmHg 91%
    06:00 +19°C° 0 mm 2 mps 737 mmHg 87%
    07:00 +20°C° 0 mm 2 mps 737 mmHg 84%
    08:00 +22°C° 0 mm 3 mps 737 mmHg 77%
    09:00 +24°C° 0 mm 3 mps 737 mmHg 71%
    10:00 +25°C° 0 mm 3 mps 737 mmHg 65%
    11:00 +25°C° 0.6 mm 3 mps 736 mmHg 66%
    12:00 +25°C° 0.6 mm 3 mps 736 mmHg 66%
    13:00 +25°C° 0.6 mm 3 mps 736 mmHg 66%
    14:00 +24°C° 2.5 mm 2 mps 735 mmHg 72%
    15:00 +23°C° 2.5 mm 2 mps 735 mmHg 77%
    16:00 +21°C° 2.5 mm 2 mps 735 mmHg 83%
    17:00 +20°C° 0.4 mm 2 mps 735 mmHg 84%
    18:00 +21°C° 0.4 mm 1 mps 735 mmHg 85%
    19:00 +20°C° 0.4 mm 1 mps 735 mmHg 86%
    20:00 +19°C° 0.4 mm 1 mps 735 mmHg 88%
    21:00 +17°C° 0.4 mm 2 mps 735 mmHg 89%
    22:00 +16°C° 0.4 mm 2 mps 735 mmHg 90%
    23:00 +16°C° 0 mm 2 mps 736 mmHg 92%

    29 May, Wednesday

    Time Temperature Precipitation Wind Pressure Humidity
    00:00 +16°C° 0 mm 3 mps 736 mmHg 94%
    01:00 +14°C° 0 mm 3 mps 736 mmHg 97%
    02:00 +14°C° 0.4 mm 3 mps 736 mmHg 96%
    03:00 +14°C° 0.4 mm 3 mps 737 mmHg 96%
    04:00 +14°C° 0.4 mm 3 mps 737 mmHg 96%
    05:00 +14°C° 0.4 mm 3 mps 737 mmHg 95%
    06:00 +13°C° 0.4 mm 3 mps 738 mmHg 94%
    07:00 +13°C° 0.4 mm 3 mps 738 mmHg 93%
    08:00 +14°C° 0.1 mm 3 mps 739 mmHg 91%
    09:00 +15°C° 0.1 mm 2 mps 739 mmHg 89%
    10:00 +16°C° 0.1 mm 2 mps 739 mmHg 87%
    11:00 +16°C° 0.3 mm 2 mps 739 mmHg 87%
    12:00 +16°C° 0.3 mm 2 mps 740 mmHg 87%
    13:00 +17°C° 0.3 mm 3 mps 740 mmHg 88%
    14:00 +16°C° 0.9 mm 3 mps 740 mmHg 90%
    15:00 +16°C° 0.9 mm 3 mps 740 mmHg 92%
    16:00 +14°C° 0.9 mm 3 mps 740 mmHg 94%
    17:00 +14°C° 0.6 mm 3 mps 741 mmHg 95%
    18:00 +13°C° 0.6 mm 3 mps 741 mmHg 95%
    19:00 +13°C° 0.6 mm 3 mps 741 mmHg 95%
    20:00 +13°C° 0.2 mm 3 mps 741 mmHg 96%
    21:00 +13°C° 0.2 mm 2 mps 742 mmHg 96%
    22:00 +13°C° 0.2 mm 2 mps 742 mmHg 96%
    23:00 +13°C° 0.3 mm 2 mps 742 mmHg 96%

    30 May, Thursday

    Time Temperature Precipitation Wind Pressure Humidity
    00:00 +12°C° 0.3 mm 3 mps 742 mmHg 96%
    01:00 +12°C° 0.3 mm 3 mps 743 mmHg 96%
    02:00 +11°C° 0.2 mm 4 mps 743 mmHg 96%
    03:00 +10°C° 0.2 mm 4 mps 743 mmHg 95%
    04:00 +10°C° 0.2 mm 4 mps 743 mmHg 95%
    05:00 +8°C° 0.3 mm 4 mps 744 mmHg 94%
    06:00 +9°C° 0.3 mm 3 mps 745 mmHg 94%
    07:00 +9°C° 0.3 mm 3 mps 745 mmHg 93%
    08:00 +8°C° 0.3 mm 3 mps 745 mmHg 93%
    09:00 +8°C° 0.3 mm 3 mps 746 mmHg 93%
    10:00 +8°C° 0.3 mm 3 mps 746 mmHg 92%
    11:00 +9°C° 0.2 mm 3 mps 747 mmHg 92%
    12:00 +9°C° 0.2 mm 3 mps 747 mmHg 92%
    13:00 +8°C° 0.2 mm 4 mps 747 mmHg 91%
    14:00 +10°C° 0.1 mm 3 mps 747 mmHg 91%
    15:00 +10°C° 0.1 mm 3 mps 748 mmHg 90%
    16:00 +12°C° 0.1 mm 2 mps 748 mmHg 90%
    17:00 +12°C° 0 mm 2 mps 748 mmHg 91%
    18:00 +12°C° 0 mm 2 mps 748 mmHg 92%
    19:00 +12°C° 0 mm 2 mps 749 mmHg 92%
    20:00 +10°C° 0 mm 2 mps 749 mmHg 93%
    21:00 +9°C° 0 mm 2 mps 749 mmHg 94%
    22:00 +9°C° 0 mm 2 mps 749 mmHg 95%
    23:00 +8°C° 0 mm 2 mps 750 mmHg 95%

    31 May, Friday

    Time Temperature Precipitation Wind Pressure Humidity
    00:00 +8°C° 0 mm 2 mps 750 mmHg 94%
    01:00 +8°C° 0 mm 2 mps 750 mmHg 94%
    02:00 +7°C° 0 mm 2 mps 750 mmHg 94%
    03:00 +7°C° 0 mm 2 mps 750 mmHg 94%
    04:00 +7°C° 0 mm 2 mps 751 mmHg 94%
    05:00 +8°C° 0 mm 2 mps 751 mmHg 89%
    06:00 +10°C° 0 mm 2 mps 751 mmHg 85%
    07:00 +13°C° 0 mm 2 mps 751 mmHg 81%
    08:00 +14°C° 0 mm 2 mps 751 mmHg 73%
    09:00 +16°C° 0 mm 2 mps 751 mmHg 65%
    10:00 +17°C° 0 mm 2 mps 751 mmHg 57%
    11:00 +18°C° 0 mm 2 mps 751 mmHg 56%
    12:00 +18°C° 0 mm 2 mps 751 mmHg 55%
    13:00 +20°C° 0 mm 1 mps 751 mmHg 53%
    14:00 +19°C° 0 mm 2 mps 751 mmHg 57%
    15:00 +19°C° 0 mm 2 mps 751 mmHg 60%
    16:00 +19°C° 0 mm 2 mps 751 mmHg 64%
    17:00 +17°C° 0 mm 2 mps 751 mmHg 69%
    18:00 +16°C° 0 mm 1 mps 752 mmHg 75%
    19:00 +15°C° 0 mm 1 mps 752 mmHg 80%
    20:00 +14°C° 0 mm 1 mps 752 mmHg 82%
    21:00 +13°C° 0 mm 1 mps 752 mmHg 85%
    22:00 +12°C° 0 mm 1 mps 753 mmHg 87%
    23:00 +11°C° 0 mm 1 mps 753 mmHg 88%
    Show more